Weather in Elita

Russia / Krasnoyarsk Krai     56°05′07″N   92°34′22″E
temp.,
°C
wind,
m/s
gust,
m/s
humid.,
%
clouds,
%
prec.,
mm/h
press.,
hPa
HPBL,
m
25 january, mon
mon2501:00−22nw1299100 0.8 103780
04:00−24wnw2497100 0.1 1038171
07:00−28w3892100 0.3 1043458
10:00−31w2893100 0.0 1045549
13:00−30w2687100 0.0 1046519
16:00−30w1291100 0.0 1046154
19:00−33ne0097100 0.0 104719
22:00−34e11100100 0.0 104519
26 january, tue
tue2601:00−34ene11100100 0.1 104519
04:00−33ene1199100 0.1 104351
07:00−33ene1199100 0.1 104350
10:00−32ene1198100 0.1 104379
13:00−30ne1193100 0.1 1042251
16:00−30ene1196100 0.0 1043164
19:00−35ene0110094 0.1 104519
22:00−36sse1110076 0.0 104519
27 january, wed
wed2701:00−36s129843 0.0 104519
04:00−35s229623 0.0 104422
07:00−33s239556 0.0 104153
10:00−28s249298 0.0 1038138
13:00−22s379699 0.2 1032305
16:00−18ssw41394100 0.4 1027523
19:00−17ssw41595100 1.1 1023553
22:00−14sw61792100 1.2 1020821
28 january, thu
thu2801:00−11sw61690100 1.6 1018871
04:00−10sw41394100 1.0 1019714
07:00−7w61390100 1.8 10211079
10:00−12w21093100 0.4 1024573
13:00−11w41288100 0.5 1025811
16:00−9w41291100 0.4 10231002
19:00−7sw41195100 1.2 1021958
22:00−7sw61392100 1.4 10171189
29 january, fri
fri2901:00−7wsw61392100 2.8 10131204
04:00−6wsw61691100 1.9 10111453
07:00−8w61391100 3.2 10111141
10:00−7w41192100 0.6 10121153
13:00−6w4891100 1.1 1012803
16:00−6wsw41194100 0.6 10121222
19:00−6wsw61390100 1.1 10121136
22:00−12nw31194100 1.4 1013651